User: anonymous   Login
Location: Unspecified
(0.0000°N, 0.0000°E)
Time: 09:28:26
(UTC+00:00)
Language:

UWE-3 - Orbit

View from above orbital plane
View from above orbital plane
View from above satellite
View from above satellite

Ground track
Ground track

The orbit data is extracted from the following two-line orbital elements,

1 39446U 13066AG  17327.64659525  .00000346  00000-0  52585-4 0  9996
2 39446  97.6122 355.6546 0071606 125.3232 235.4703 14.78096312214751
Epoch (UTC): 23 November 2017 15:31:05
Eccentricity: 0.0071606
inclination: 97.6122°
perigee height: 585 km
apogee height: 685 km
right ascension of ascending node: 355.6546°
argument of perigee: 125.3232°
revolutions per day: 14.78096312
mean anomaly at epoch: 235.4703°
orbit number at epoch: 21475

The dashed part of the orbit path shows where the satellite is in the earth's shadow,  

DLR